Simultaneous Nadir Overpasses (SNOs) Predictions

Prediction of SNOs over PacNW region [( 10.00, 139.50) to ( 22.70, 165.60)] between AQUA and NPP Satellites:

Table of predicted SNOs over PacNW region for the next 30.0 days since TLE Epoch: 7/4/2015
Index Date (AQUA) Time (AQUA) AQUA Lat,Lon Date (NPP) Time (NPP) NPP Lat,Lon Distance(km) Time Diff (sec)
1 07/09/2015 03:29:34 12.83, 149.71 07/09/2015 03:28:48 12.52, 148.18 169.61 46
2 07/17/2015 02:41:18 17.43, 161.05 07/17/2015 02:39:16 17.17, 159.77 138.75 122
3 07/25/2015 03:29:19 12.74, 149.76 07/25/2015 03:28:34 12.42, 148.20 173.11 45




NCC Satellite Simultaneous Nadir Overpasses (SNOs) Prediction Service
